Powrót do katalogu

CZ-6A DEB

AktywnyPO
NORAD 61083·DEBRIS·🇨🇳 China

Wystrzelony Aug 6, 2024 z Taiyuan Satellite Launch Center

Loading…

Następne Przeloty (najbliższe 24 godziny)

TLE

ŚwieżeSource: Space-Track

Epoka: Sep 14, 2026, 23:07 UTC

1 61083U 24140MZ  26257.96377514  .00000344  00000-0  90492-4 0  9992
2 61083  88.8903 251.0277 0098267  23.6119 336.9548 14.43833594108162

Śledź CZ-6A DEB w czasie rzeczywistym z AllMySat

Download on the App Store